| time (UTC) | temp F | wind direction | speed MPH | gust MPH | rain 1hr in | rain 24hr in | rain mn in | humidity % | barometer mb |
| 20260502211035 | 67 | 230 | 2.0 | 2.0 | 0.00 | 0.00 | 0.00 | 48 | 1018.3 |
| 20260502204458 | 67 | 236 | 2.0 | 2.0 | 0.00 | 0.00 | 0.00 | 47 | 1018.4 |
| 20260502203445 | 68 | 234 | 1.0 | 2.0 | 0.00 | 0.00 | 0.00 | 47 | 1018.4 |
| 20260502202444 | 68 | 241 | 2.0 | 2.0 | 0.00 | 0.00 | 0.00 | 47 | 1018.5 |
| 20260502201443 | 68 | 236 | 1.0 | 2.0 | 0.00 | 0.00 | 0.00 | 47 | 1018.5 |
| 20260502200522 | 69 | 238 | 2.0 | 2.0 | 0.00 | 0.00 | 0.00 | 47 | 1018.6 |
| 20260502195458 | 69 | 237 | 2.0 | 2.0 | 0.00 | 0.00 | 0.00 | 47 | 1018.5 |
| 20260502194437 | 70 | 235 | 1.0 | 2.0 | 0.00 | 0.00 | 0.00 | 47 | 1018.5 |
| 20260502193434 | 70 | 239 | 1.0 | 2.0 | 0.00 | 0.00 | 0.00 | 46 | 1018.6 |
| 20260502192431 | 71 | 231 | 1.0 | 2.0 | 0.00 | 0.00 | 0.00 | 46 | 1018.7 |
| 20260502191430 | 71 | 237 | 1.0 | 2.0 | 0.00 | 0.00 | 0.00 | 46 | 1018.5 |
| 20260502190430 | 71 | 243 | 1.0 | 2.0 | 0.00 | 0.00 | 0.00 | 46 | 1018.7 |
| 20260502185426 | 72 | 242 | 1.0 | 2.0 | 0.00 | 0.00 | 0.00 | 46 | 1018.6 |
| 20260502184505 | 72 | 243 | 1.0 | 2.0 | 0.00 | 0.00 | 0.00 | 46 | 1018.5 |
| 20260502183421 | 72 | 244 | 1.0 | 2.0 | 0.00 | 0.00 | 0.00 | 46 | 1018.5 |
| 20260502182420 | 73 | 251 | 2.0 | 4.0 | 0.00 | 0.00 | 0.00 | 46 | 1018.4 |
| 20260502181417 | 73 | 260 | 2.0 | 4.0 | 0.00 | 0.00 | 0.00 | 46 | 1018.3 |
| 20260502180416 | 73 | 270 | 2.0 | 4.0 | 0.00 | 0.00 | 0.00 | 46 | 1018.3 |
| 20260502170404 | 74 | 270 | 2.0 | 6.0 | 0.00 | 0.00 | 0.00 | 46 | 1018.8 |
| 20260502163357 | 75 | 283 | 3.0 | 7.0 | 0.00 | 0.00 | 0.00 | 46 | 1019.1 |
| 20260502162406 | 75 | 270 | 3.0 | 6.0 | 0.00 | 0.00 | 0.00 | 46 | 1019.4 |
| 20260502161354 | 75 | 270 | 2.0 | 5.0 | 0.00 | 0.00 | 0.00 | 46 | 1019.5 |
| 20260502160352 | 75 | 270 | 2.0 | 6.0 | 0.00 | 0.00 | 0.00 | 46 | 1019.7 |
| 20260502151341 | 75 | 288 | 3.0 | 7.0 | 0.00 | 0.00 | 0.00 | 46 | 1020.4 |
| 20260502150340 | 75 | 282 | 2.0 | 7.0 | 0.00 | 0.00 | 0.00 | 46 | 1020.3 |
| 20260502130316 | 76 | 291 | 2.0 | 6.0 | 0.00 | 0.00 | 0.00 | 47 | 1021.7 |
| 20260502123312 | 78 | 315 | 2.0 | 6.0 | 0.00 | 0.00 | 0.00 | 47 | 1022.0 |
| 20260502122309 | 78 | 286 | 1.0 | 2.0 | 0.00 | 0.00 | 0.00 | 47 | 1022.1 |
| 20260502121306 | 79 | 287 | 2.0 | 5.0 | 0.00 | 0.00 | 0.00 | 47 | 1022.3 |
| 20260502120305 | 79 | 299 | 2.0 | 5.0 | 0.00 | 0.00 | 0.00 | 47 | 1022.4 |
| 20260502115305 | 80 | 270 | 1.0 | 4.0 | 0.00 | 0.00 | 0.00 | 47 | 1022.5 |
| 20260502113258 | 82 | 292 | 2.0 | 6.0 | 0.00 | 0.00 | 0.00 | 48 | 1022.7 |
| 20260502112305 | 81 | 296 | 2.0 | 6.0 | 0.00 | 0.00 | 0.00 | 50 | 1022.8 |
| 20260502111333 | 80 | 322 | 1.0 | 6.0 | 0.00 | 0.00 | 0.00 | 50 | 1022.9 |
| 20260502110251 | 79 | 297 | 1.0 | 3.0 | 0.00 | 0.00 | 0.00 | 50 | 1023.1 |
| 20260502105250 | 79 | 270 | 1.0 | 4.0 | 0.00 | 0.00 | 0.00 | 50 | 1023.1 |
| 20260502104308 | 78 | 305 | 2.0 | 4.0 | 0.00 | 0.00 | 0.00 | 50 | 1023.2 |
| 20260502103308 | 78 | 295 | 2.0 | 4.0 | 0.00 | 0.00 | 0.00 | 51 | 1023.3 |
| 20260502102306 | 78 | 324 | 2.0 | 6.0 | 0.00 | 0.00 | 0.00 | 51 | 1023.5 |
| 20260502101241 | 77 | 287 | 2.0 | 5.0 | 0.00 | 0.00 | 0.00 | 51 | 1023.5 |
| 20260502100239 | 76 | 307 | 2.0 | 7.0 | 0.00 | 0.00 | 0.00 | 52 | 1023.8 |
| 20260502091230 | 73 | 296 | 1.0 | 2.0 | 0.00 | 0.00 | 0.00 | 54 | 1024.3 |
| 20260502090228 | 72 | 315 | 2.0 | 5.0 | 0.00 | 0.00 | 0.00 | 54 | 1024.4 |
| 20260502071226 | 60 | 304 | 1.0 | 2.0 | 0.00 | 0.00 | 0.00 | 57 | 1024.7 |
| 20260502070226 | 59 | 270 | 1.0 | 2.0 | 0.00 | 0.00 | 0.00 | 57 | 1024.8 |
| 20260502065243 | 58 | 270 | 1.0 | 3.0 | 0.00 | 0.00 | 0.00 | 57 | 1024.9 |
| 20260502064202 | 58 | 270 | 1.0 | 2.0 | 0.00 | 0.00 | 0.00 | 57 | 1024.8 |
| 20260502063210 | 57 | 270 | 1.0 | 3.0 | 0.00 | 0.00 | 0.00 | 57 | 1024.9 |
| 20260502062226 | 56 | 270 | 1.0 | 1.0 | 0.00 | 0.00 | 0.00 | 57 | 1024.8 |
| 20260502061157 | 55 | 239 | 1.0 | 2.0 | 0.00 | 0.00 | 0.00 | 57 | 1024.8 |
| 20260502060151 | 54 | 270 | 1.0 | 1.0 | 0.00 | 0.00 | 0.00 | 57 | 1024.8 |
| 20260502055212 | 54 | 270 | 1.0 | 2.0 | 0.00 | 0.00 | 0.00 | 57 | 1024.8 |
| 20260502054209 | 53 | 270 | 1.0 | 1.0 | 0.00 | 0.00 | 0.00 | 57 | 1024.9 |
| 20260502053145 | 53 | 270 | 1.0 | 2.0 | 0.00 | 0.00 | 0.00 | 57 | 1024.8 |
| 20260502052155 | 52 | 270 | 1.0 | 2.0 | 0.00 | 0.00 | 0.00 | 57 | 1024.8 |
| 20260502051143 | 52 | 270 | 1.0 | 2.0 | 0.00 | 0.00 | 0.00 | 57 | 1024.9 |
| 20260502050141 | 51 | 270 | 1.0 | 2.0 | 0.00 | 0.00 | 0.00 | 57 | 1024.8 |
| 20260502045157 | 51 | 270 | 1.0 | 2.0 | 0.00 | 0.00 | 0.00 | 57 | 1024.7 |
| 20260502044135 | 51 | 270 | 1.0 | 2.0 | 0.00 | 0.00 | 0.00 | 57 | 1024.6 |
| 20260502043134 | 51 | 270 | 1.0 | 2.0 | 0.00 | 0.00 | 0.00 | 57 | 1024.7 |
| 20260502042133 | 51 | 318 | 1.0 | 2.0 | 0.00 | 0.00 | 0.00 | 57 | 1024.7 |
| 20260502041130 | 51 | 323 | 1.0 | 2.0 | 0.00 | 0.00 | 0.00 | 57 | 1024.8 |
| 20260502040129 | 51 | 306 | 1.0 | 2.0 | 0.00 | 0.00 | 0.00 | 57 | 1024.8 |
| 20260502035125 | 51 | 322 | 1.0 | 2.0 | 0.00 | 0.00 | 0.00 | 57 | 1024.8 |
| 20260502034123 | 51 | 315 | 1.0 | 2.0 | 0.00 | 0.00 | 0.00 | 56 | 1024.8 |
| 20260502033122 | 51 | 328 | 1.0 | 2.0 | 0.00 | 0.00 | 0.00 | 56 | 1024.7 |
| 20260502032140 | 52 | 325 | 1.0 | 2.0 | 0.00 | 0.00 | 0.00 | 56 | 1024.8 |
| 20260502031118 | 52 | 328 | 1.0 | 2.0 | 0.00 | 0.00 | 0.00 | 56 | 1024.7 |
| 20260502030117 | 52 | 318 | 1.0 | 2.0 | 0.00 | 0.00 | 0.00 | 56 | 1024.6 |
| 20260502025115 | 52 | 315 | 1.0 | 2.0 | 0.00 | 0.00 | 0.00 | 56 | 1024.6 |
| 20260502024112 | 53 | 321 | 1.0 | 2.0 | 0.00 | 0.00 | 0.00 | 56 | 1024.7 |
| 20260502023110 | 53 | 321 | 1.0 | 2.0 | 0.00 | 0.00 | 0.00 | 56 | 1024.7 |
| 20260502022107 | 53 | 228 | 1.0 | 2.0 | 0.00 | 0.00 | 0.00 | 56 | 1024.7 |
| 20260502021108 | 53 | 222 | 1.0 | 2.0 | 0.00 | 0.00 | 0.00 | 56 | 1024.8 |
| 20260502020105 | 54 | 231 | 1.0 | 2.0 | 0.00 | 0.00 | 0.00 | 56 | 1024.8 |
| 20260502015123 | 54 | 231 | 1.0 | 2.0 | 0.00 | 0.00 | 0.00 | 56 | 1024.8 |
| 20260502014100 | 54 | 225 | 1.0 | 2.0 | 0.00 | 0.00 | 0.00 | 55 | 1024.7 |
| 20260502013059 | 54 | 225 | 1.0 | 2.0 | 0.00 | 0.00 | 0.00 | 55 | 1024.7 |
| 20260502012056 | 55 | 225 | 1.0 | 2.0 | 0.00 | 0.00 | 0.00 | 55 | 1024.9 |
| 20260502011055 | 55 | 227 | 1.0 | 2.0 | 0.00 | 0.00 | 0.00 | 55 | 1024.8 |
| 20260502010053 | 55 | 227 | 1.0 | 2.0 | 0.00 | 0.00 | 0.00 | 55 | 1024.9 |
| 20260502005049 | 55 | 227 | 1.0 | 2.0 | 0.00 | 0.00 | 0.00 | 55 | 1024.9 |
| 20260502004048 | 56 | 230 | 1.0 | 2.0 | 0.00 | 0.00 | 0.00 | 55 | 1025.0 |
| 20260502003046 | 56 | 225 | 1.0 | 2.0 | 0.00 | 0.00 | 0.00 | 55 | 1024.9 |
| 20260502002054 | 56 | 227 | 1.0 | 2.0 | 0.00 | 0.00 | 0.00 | 54 | 1024.9 |
| 20260502001043 | 57 | 227 | 1.0 | 2.0 | 0.00 | 0.00 | 0.00 | 54 | 1024.9 |
| 20260502000040 | 57 | 227 | 1.0 | 2.0 | 0.00 | 0.00 | 0.00 | 54 | 1025.0 |
| 20260501235049 | 57 | 225 | 1.0 | 2.0 | 0.00 | 0.00 | 0.00 | 54 | 1025.0 |
| 20260501234036 | 58 | 225 | 1.0 | 2.0 | 0.00 | 0.00 | 0.00 | 54 | 1025.1 |
| 20260501233055 | 58 | 225 | 1.0 | 2.0 | 0.00 | 0.00 | 0.00 | 54 | 1025.1 |
| 20260501232032 | 58 | 225 | 1.0 | 2.0 | 0.00 | 0.00 | 0.00 | 54 | 1025.2 |
| 20260501231029 | 59 | 225 | 1.0 | 2.0 | 0.00 | 0.00 | 0.00 | 54 | 1025.2 |
| 20260501230029 | 59 | 227 | 1.0 | 2.0 | 0.00 | 0.00 | 0.00 | 54 | 1025.3 |
| 20260501225025 | 59 | 225 | 1.0 | 2.0 | 0.00 | 0.00 | 0.00 | 54 | 1025.2 |
| 20260501224045 | 59 | 225 | 1.0 | 2.0 | 0.00 | 0.00 | 0.00 | 54 | 1025.2 |
| 20260501223103 | 60 | 230 | 1.0 | 2.0 | 0.00 | 0.00 | 0.00 | 53 | 1025.2 |
| 20260501222131 | 60 | 227 | 1.0 | 2.0 | 0.00 | 0.00 | 0.00 | 53 | 1025.3 |
| 20260501221018 | 61 | 225 | 1.0 | 2.0 | 0.00 | 0.00 | 0.00 | 53 | 1025.3 |
| 20260501220020 | 61 | 228 | 1.0 | 2.0 | 0.00 | 0.00 | 0.00 | 53 | 1025.3 |
| 20260501215013 | 61 | 228 | 1.0 | 2.0 | 0.00 | 0.00 | 0.00 | 53 | 1025.3 |